NOAA 16 DEB, 41249

Orbit data source: Space-Track

NOAA 16 DEB, 41249 is space debris in SSO originally from a launch on Thu, 21 Sep 2000 UTC launched from the Air Force Western Test Range (AFWTR). Debris objects in space refer to the collection of defunct objects orbiting the Earth. Examples of debris include non-operational satellites, rocket bodies, and fragments generated from explosions, collisions, or faulty payload assembly.

Loading next visibility...
Identifier
41249, 2000-055EZ
Orbit
SSO
Last TLE update
8 hours ago
Origin
Manufacturer
Unknown
Mission
Spacecraft
Bus & Motor
Unknown
Mass
Unknown
Launch date (UTC)
2000-09-21 (25 years ago)
Launch vehicle
Unknown
Launch site
Air Force Western Test Range (AFWTR)
Object type
Payload
Rocket body
Debris
Shape & HBR
Unknown
Radar Cross Section
Small (<0.1 m²)

Expand to show TLE details & history

TLE from 8 hours ago
0 NOAA 16 DEB
1 41249U 00055EZ  25189.02390241  .00005224  00000-0  12700-2 0  9991
2 41249  98.9768  30.5807 0034491 357.6240   2.4784 14.52929812495703
Epoch: 2025-07-08T00:34Z
TLE epoch observation values (Epoch: 2025-07-08T00:34:25.168Z)
Latitude
-0.00006°
Longitude
95.75101°
Altitude
694.595 km
Speed
7.522 km/s
True Right ascension
02h 02m 19s
True Declination
0° 00' 00"
Sunlit
Object was in daylight at epoch
Visualization orbit readout
Latitude
-80.78109°
Longitude
171.58913°
Altitude
741.727 km
Speed
7.484 km/s
Apparent Right ascension
08h 15m 46s
Apparent Declination
-61° 38' 51"
Sunlit
Object is in daylight
Visualization observer readout
Local Sidereal Time
20:31:54
Azimuth
174.857° S
Elevation
-68.129°
Doppler factor
1
Orbital elements
Apogee altitude
737.682 km
Perigee altitude
688.765 km
Semi-major axis
7,091.36 km
Eccentricity
0.00345
Inclination
98.9768°
RAAN
30.5807°
Arg. of periapsis
357.624°
True anomaly
Unknown
Mean anomaly
2.4784°
Eccentric anomaly
Unknown
Mean motion
3.63453 °/min
Orbital period
99.05 mins
BSTAR
0.00127
Loading maneuver chart data...
Loading SW <> Apogee altitude chart data...
Loading historical data...
Loading historical data...
Loading historical data...
Loading historical data...
Loading historical data...
Loading historical data...
Loading historical data...

NOAA 16 DEB Visibility forecast

Observer location: undefined°, undefined°

Span
Click to sort rows by Start time (UTC) header in descending order
Start Az.
Max El. time (UTC)
Max El. Az.
Max El.
End time (UTC)
End Az.
6 mins2025-07-08 12:18:10.944Z103.493° ESE2025-07-08 12:21:10.944Z58.632° ENE18.581°2025-07-08 12:24:10.944Z18.903° NNE
7 mins2025-07-08 13:55:10.944Z194.998° SSW2025-07-08 13:58:10.944Z249.877° W33.906°2025-07-08 14:02:10.944Z328.15° NNW
8 mins2025-07-09 01:57:10.944Z32.561° NE2025-07-09 02:00:10.944Z84.997° E35.718°2025-07-09 02:05:10.944Z173.887° S
5 mins2025-07-09 03:36:10.944Z325.731° NNW2025-07-09 03:38:10.944Z295.395° NW18.648°2025-07-09 03:41:10.944Z254.595° W
|